QPF
0.17 0.17 0.18 0.17 0.15 0.12 0.13 0.13 0.14 0.13 0.12 0.08 0.05 0.03 0.03 0.02 0.03 0.02 0.02 0.04 0.02 0.01 0.00 0.01 0.01 0.00 0.01 0.01 0.01 0.00 0.01 0.01 0.01 0.01 0.01 0.01 0.01 0.01
0.19 0.17 0.17 0.16 0.14 0.12 0.11 0.13 0.14 0.13 0.13 0.10 0.07 0.04 0.03 0.02 0.02 0.01 0.02 0.04 0.02 0.02 0.01 0.01 0.01 0.00 0.01 0.01 0.00 0.00 0.00 0.00 0.00 0.01 0.01 0.01 0.02 0.02
0.18 0.18 0.18 0.20 0.20 0.16 0.14 0.13 0.13 0.13 0.13 0.12 0.08 0.05 0.04 0.03 0.02 0.02 0.02 0.03 0.03 0.02 0.01 0.01 0.01 0.01 0.00 0.00 0.00 0.00 0.00 0.00 0.00 0.00 0.01 0.01 0.02 0.02
0.16 0.15 0.13 0.15 0.16 0.15 0.15 0.11 0.10 0.11 0.12 0.12 0.11 0.08 0.06 0.05 0.05 0.04 0.03 0.05 0.05 0.03 0.02 0.01 0.01 0.01 0.00 0.00 0.00 0.00 0.00 0.00 0.00 0.00 0.01 0.01 0.02 0.02
0.14 0.14 0.12 0.11 0.11 0.10 0.10 0.09 0.08 0.08 0.10 0.10 0.10 0.08 0.07 0.06 0.07 0.06 0.06 0.07 0.05 0.03 0.02 0.01 0.01 0.02 0.01 0.01 0.01 0.00 0.00 0.00 0.00 0.00 0.00 0.01 0.01 0.02
0.12 0.11 0.12 0.10 0.10 0.09 0.08 0.09 0.09 0.09 0.09 0.09 0.09 0.07 0.06 0.07 0.09 0.11 0.12 0.13 0.10 0.05 0.03 0.01 0.01 0.01 0.01 0.01 0.01 0.01 0.01 0.00 0.00 0.00 0.01 0.01 0.01 0.01
0.12 0.13 0.14 0.12 0.11 0.09 0.08 0.09 0.10 0.09 0.09 0.08 0.07 0.07 0.07 0.09 0.09 0.11 0.13 0.13 0.11 0.11 0.10 0.07 0.05 0.04 0.03 0.02 0.01 0.02 0.01 0.00 0.00 0.00 0.01 0.01 0.02 0.02
0.10 0.12 0.14 0.11 0.10 0.10 0.09 0.09 0.09 0.10 0.10 0.09 0.07 0.07 0.05 0.05 0.07 0.11 0.12 0.08 0.06 0.09 0.08 0.07 0.05 0.03 0.03 0.03 0.02 0.01 0.01 0.00 0.00 0.00 0.00 0.01 0.01 0.02
0.10 0.10 0.10 0.10 0.10 0.10 0.09 0.07 0.07 0.08 0.08 0.08 0.08 0.07 0.05 0.04 0.06 0.09 0.11 0.10 0.06 0.05 0.06 0.04 0.02 0.02 0.02 0.02 0.02 0.01 0.01 0.00 0.00 0.00 0.01 0.01 0.01 0.02
0.09 0.09 0.09 0.12 0.09 0.09 0.10 0.11 0.08 0.07 0.07 0.06 0.08 0.06 0.03 0.03 0.05 0.06 0.06 0.05 0.06 0.06 0.05 0.03 0.02 0.02 0.01 0.01 0.01 0.01 0.01 0.01 0.01 0.01 0.01 0.01 0.01 0.01
0.12 0.10 0.12 0.13 0.09 0.10 0.12 0.13 0.10 0.06 0.05 0.05 0.05 0.04 0.02 0.02 0.03 0.05 0.05 0.05 0.04 0.03 0.03 0.02 0.02 0.01 0.01 0.01 0.01 0.01 0.01 0.01 0.01 0.01 0.01 0.01 0.01 0.01
0.18 0.15 0.15 0.13 0.08 0.10 0.11 0.13 0.11 0.05 0.03 0.03 0.02 0.02 0.01 0.01 0.03 0.06 0.09 0.08 0.05 0.02 0.02 0.01 0.02 0.01 0.01 0.01 0.00 0.01 0.01 0.01 0.01 0.00 0.00 0.00 0.00 0.00
0.18 0.16 0.09 0.09 0.08 0.09 0.10 0.11 0.14 0.09 0.07 0.06 0.05 0.03 0.02 0.01 0.01 0.02 0.04 0.06 0.06 0.02 0.01 0.03 0.04 0.04 0.01 0.01 0.01 0.01 0.01 0.01 0.00 0.00 0.00 0.00 0.00 0.00
0.14 0.09 0.06 0.06 0.06 0.07 0.08 0.07 0.12 0.14 0.11 0.09 0.08 0.05 0.03 0.02 0.01 0.01 0.01 0.01 0.02 0.01 0.02 0.04 0.05 0.05 0.02 0.00 0.00 0.00 0.00 0.00 0.00 0.00 0.00 0.00 0.00 0.00
0.11 0.07 0.05 0.04 0.04 0.04 0.06 0.05 0.08 0.14 0.13 0.11 0.07 0.04 0.02 0.02 0.01 0.01 0.00 0.00 0.00 0.00 0.01 0.02 0.03 0.03 0.01 0.00 0.00 0.00 0.00 0.00 0.00 0.00 0.00 0.00 0.00 0.00
0.05 0.04 0.04 0.04 0.04 0.03 0.03 0.06 0.08 0.10 0.10 0.09 0.05 0.02 0.01 0.01 0.01 0.01 0.01 0.00 0.00 0.00 0.00 0.00 0.01 0.01 0.01 0.00 0.00 0.00 0.00 0.00 0.00 0.00 0.00 0.00 0.00 0.00
0.02 0.03 0.04 0.05 0.05 0.05 0.06 0.07 0.05 0.04 0.04 0.05 0.04 0.03 0.01 0.01 0.01 0.01 0.01 0.00 0.00 0.00 0.00 0.00 0.00 0.00 0.00 0.00 0.00 0.00 0.00 0.00 0.00 0.00 0.00 0.00 0.00 0.00
0.06 0.05 0.05 0.05 0.05 0.06 0.08 0.06 0.04 0.03 0.03 0.04 0.04 0.04 0.03 0.01 0.01 0.00 0.01 0.00 0.00 0.00 0.00 0.00 0.00 0.00 0.00 0.00 0.00 0.00 0.00 0.00 0.00 0.00 0.00 0.00 0.00 0.00
0.08 0.05 0.04 0.04 0.05 0.06 0.06 0.04 0.02 0.01 0.02 0.02 0.02 0.02 0.03 0.02 0.01 0.01 0.01 0.00 0.00 0.00 0.00 0.00 0.00 0.00 0.00 0.00 0.00 0.00 0.00 0.00 0.00 0.00 0.00 0.00 0.00 0.00
0.04 0.03 0.03 0.03 0.03 0.02 0.01 0.01 0.00 0.00 0.01 0.01 0.01 0.01 0.02 0.01 0.00 0.00 0.00 0.00 0.00 0.00 0.00 0.00 0.00 0.00 0.00 0.00 0.00 0.00 0.00 0.00 0.00 0.00 0.00 0.00 0.00 0.00
0.02 0.01 0.01 0.01 0.00 0.00 0.00 0.00 0.00 0.00 0.01 0.01 0.01 0.01 0.01 0.01 0.01 0.00 0.00 0.00 0.00 0.00 0.00 0.00 0.00 0.00 0.00 0.00 0.00 0.00 0.00 0.00 0.00 0.00 0.00 0.00 0.00 0.00
0.00 0.00 0.00 0.00 0.00 0.00 0.00 0.00 0.00 0.00 0.00 0.00 0.00 0.00 0.00 0.00 0.00 0.00 0.00 0.00 0.00 0.00 0.00 0.00 0.00 0.00 0.00 0.00 0.00 0.00 0.00 0.00 0.00 0.00 0.00 0.00 0.00 0.00
0.00 0.00 0.00 0.00 0.00 0.00 0.00 0.00 0.00 0.00 0.00 0.00 0.00 0.00 0.00 0.00 0.00 0.00 0.00 0.00 0.00 0.00 0.00 0.00 0.00 0.00 0.00 0.00 0.00 0.00 0.00 0.00 0.00 0.00 0.00 0.00 0.00 0.00
MSLP
1011.65 1012.18 1012.77 1013.41 1014.05 1014.66 1015.22 1015.71 1016.11 1016.43 1016.65 1016.80 1016.88 1016.91 1016.92 1016.91 1016.92 1016.96 1017.06 1017.23 1017.48 1017.81 1018.21 1018.65 1019.11 1019.53 1019.90 1020.18 1020.37 1020.47 1020.52 1020.53 1020.54 1020.58 1020.66 1020.76 1020.87 1020.95
1011.20 1011.69 1012.25 1012.88 1013.55 1014.22 1014.86 1015.45 1015.96 1016.38 1016.70 1016.92 1017.04 1017.08 1017.06 1017.01 1016.95 1016.92 1016.96 1017.09 1017.32 1017.65 1018.06 1018.53 1019.00 1019.44 1019.82 1020.09 1020.27 1020.35 1020.36 1020.35 1020.34 1020.36 1020.43 1020.54 1020.66 1020.76
1011.07 1011.47 1011.97 1012.54 1013.18 1013.84 1014.50 1015.13 1015.71 1016.21 1016.61 1016.90 1017.08 1017.15 1017.15 1017.09 1017.02 1016.97 1016.99 1017.11 1017.33 1017.67 1018.10 1018.58 1019.07 1019.52 1019.89 1020.15 1020.29 1020.34 1020.32 1020.28 1020.25 1020.25 1020.31 1020.43 1020.55 1020.67
1011.21 1011.51 1011.91 1012.39 1012.94 1013.55 1014.18 1014.80 1015.40 1015.94 1016.39 1016.74 1016.98 1017.11 1017.15 1017.14 1017.10 1017.09 1017.13 1017.27 1017.53 1017.89 1018.34 1018.84 1019.34 1019.79 1020.15 1020.39 1020.51 1020.53 1020.48 1020.40 1020.34 1020.33 1020.38 1020.49 1020.63 1020.76
1011.53 1011.74 1012.03 1012.40 1012.84 1013.35 1013.91 1014.48 1015.05 1015.59 1016.07 1016.46 1016.76 1016.96 1017.08 1017.15 1017.18 1017.24 1017.36 1017.56 1017.87 1018.28 1018.76 1019.28 1019.80 1020.25 1020.60 1020.83 1020.93 1020.92 1020.85 1020.75 1020.67 1020.63 1020.67 1020.77 1020.91 1021.04
1011.94 1012.07 1012.26 1012.52 1012.85 1013.25 1013.71 1014.20 1014.72 1015.23 1015.70 1016.12 1016.47 1016.74 1016.95 1017.10 1017.24 1017.40 1017.61 1017.90 1018.28 1018.75 1019.28 1019.84 1020.37 1020.83 1021.19 1021.41 1021.50 1021.49 1021.40 1021.28 1021.18 1021.13 1021.15 1021.23 1021.36 1021.49
1012.35 1012.43 1012.54 1012.72 1012.95 1013.24 1013.60 1014.00 1014.44 1014.90 1015.35 1015.77 1016.15 1016.48 1016.76 1017.02 1017.26 1017.53 1017.84 1018.23 1018.69 1019.23 1019.81 1020.40 1020.96 1021.44 1021.81 1022.04 1022.14 1022.13 1022.05 1021.93 1021.82 1021.75 1021.75 1021.81 1021.91 1022.02
1012.71 1012.76 1012.84 1012.96 1013.12 1013.33 1013.60 1013.91 1014.27 1014.67 1015.07 1015.47 1015.87 1016.23 1016.58 1016.91 1017.24 1017.61 1018.01 1018.48 1019.02 1019.61 1020.24 1020.86 1021.45 1021.95 1022.35 1022.61 1022.74 1022.75 1022.69 1022.58 1022.47 1022.39 1022.37 1022.39 1022.46 1022.54
1013.01 1013.06 1013.14 1013.24 1013.36 1013.52 1013.72 1013.96 1014.25 1014.57 1014.92 1015.30 1015.67 1016.05 1016.43 1016.81 1017.21 1017.63 1018.11 1018.63 1019.22 1019.85 1020.50 1021.15 1021.76 1022.29 1022.71 1023.01 1023.18 1023.24 1023.21 1023.13 1023.03 1022.95 1022.90 1022.90 1022.93 1022.98
1013.26 1013.35 1013.45 1013.56 1013.67 1013.81 1013.97 1014.16 1014.39 1014.65 1014.95 1015.27 1015.61 1015.98 1016.36 1016.75 1017.18 1017.63 1018.13 1018.68 1019.28 1019.92 1020.58 1021.23 1021.85 1022.40 1022.85 1023.19 1023.41 1023.52 1023.54 1023.50 1023.43 1023.35 1023.30 1023.27 1023.27 1023.28
1013.52 1013.65 1013.78 1013.92 1014.06 1014.20 1014.34 1014.50 1014.69 1014.90 1015.14 1015.41 1015.72 1016.05 1016.41 1016.79 1017.20 1017.65 1018.14 1018.67 1019.25 1019.87 1020.51 1021.14 1021.75 1022.31 1022.78 1023.16 1023.43 1023.59 1023.67 1023.68 1023.65 1023.59 1023.54 1023.49 1023.47 1023.45
1013.82 1013.99 1014.16 1014.34 1014.50 1014.66 1014.80 1014.95 1015.11 1015.28 1015.48 1015.71 1015.98 1016.27 1016.59 1016.95 1017.33 1017.74 1018.19 1018.68 1019.21 1019.78 1020.36 1020.96 1021.54 1022.08 1022.56 1022.97 1023.28 1023.51 1023.64 1023.71 1023.71 1023.69 1023.64 1023.60 1023.56 1023.54
1014.19 1014.39 1014.59 1014.79 1014.98 1015.15 1015.31 1015.45 1015.60 1015.75 1015.93 1016.14 1016.37 1016.63 1016.92 1017.24 1017.58 1017.95 1018.34 1018.77 1019.23 1019.72 1020.24 1020.77 1021.31 1021.82 1022.30 1022.72 1023.06 1023.33 1023.52 1023.64 1023.69 1023.70 1023.68 1023.65 1023.61 1023.58
1014.63 1014.83 1015.04 1015.26 1015.46 1015.64 1015.81 1015.96 1016.11 1016.26 1016.43 1016.63 1016.84 1017.09 1017.36 1017.64 1017.95 1018.27 1018.61 1018.97 1019.36 1019.77 1020.21 1020.67 1021.14 1021.62 1022.07 1022.49 1022.85 1023.15 1023.38 1023.54 1023.64 1023.69 1023.70 1023.68 1023.66 1023.64
1015.11 1015.29 1015.50 1015.70 1015.91 1016.09 1016.26 1016.42 1016.58 1016.75 1016.92 1017.12 1017.35 1017.59 1017.86 1018.13 1018.42 1018.71 1019.00 1019.31 1019.62 1019.96 1020.32 1020.70 1021.11 1021.52 1021.94 1022.34 1022.71 1023.02 1023.28 1023.48 1023.62 1023.70 1023.74 1023.74 1023.74 1023.72
1015.60 1015.75 1015.92 1016.11 1016.30 1016.47 1016.64 1016.81 1016.98 1017.16 1017.36 1017.58 1017.83 1018.09 1018.37 1018.65 1018.93 1019.20 1019.47 1019.73 1019.99 1020.26 1020.55 1020.87 1021.20 1021.56 1021.93 1022.30 1022.65 1022.97 1023.24 1023.46 1023.63 1023.73 1023.79 1023.82 1023.83 1023.83
1016.06 1016.16 1016.30 1016.46 1016.62 1016.78 1016.95 1017.11 1017.30 1017.49 1017.72 1017.97 1018.24 1018.53 1018.83 1019.13 1019.42 1019.69 1019.94 1020.18 1020.40 1020.63 1020.87 1021.12 1021.40 1021.70 1022.02 1022.35 1022.68 1022.99 1023.26 1023.48 1023.65 1023.78 1023.85 1023.89 1023.91 1023.91
1016.46 1016.53 1016.63 1016.75 1016.88 1017.02 1017.18 1017.34 1017.53 1017.74 1017.98 1018.25 1018.55 1018.87 1019.19 1019.51 1019.82 1020.10 1020.35 1020.58 1020.79 1020.98 1021.18 1021.39 1021.63 1021.88 1022.16 1022.45 1022.75 1023.03 1023.28 1023.50 1023.67 1023.79 1023.87 1023.91 1023.93 1023.93
1016.80 1016.84 1016.91 1017.00 1017.11 1017.23 1017.37 1017.53 1017.71 1017.92 1018.17 1018.46 1018.77 1019.10 1019.44 1019.77 1020.09 1020.38 1020.64 1020.86 1021.07 1021.25 1021.43 1021.62 1021.82 1022.04 1022.28 1022.54 1022.80 1023.05 1023.28 1023.48 1023.63 1023.75 1023.82 1023.86 1023.86 1023.84
1017.08 1017.11 1017.16 1017.23 1017.32 1017.43 1017.55 1017.70 1017.87 1018.08 1018.32 1018.59 1018.90 1019.22 1019.56 1019.89 1020.21 1020.50 1020.77 1021.00 1021.21 1021.39 1021.57 1021.75 1021.93 1022.13 1022.35 1022.57 1022.80 1023.02 1023.22 1023.40 1023.53 1023.63 1023.69 1023.71 1023.69 1023.66
1017.31 1017.34 1017.39 1017.46 1017.54 1017.63 1017.74 1017.88 1018.03 1018.22 1018.44 1018.69 1018.97 1019.27 1019.58 1019.90 1020.20 1020.49 1020.75 1020.99 1021.20 1021.39 1021.58 1021.76 1021.94 1022.14 1022.34 1022.54 1022.74 1022.93 1023.11 1023.25 1023.37 1023.44 1023.48 1023.48 1023.44 1023.39
1017.46 1017.52 1017.59 1017.67 1017.75 1017.85 1017.95 1018.07 1018.21 1018.37 1018.56 1018.77 1019.01 1019.27 1019.54 1019.82 1020.10 1020.37 1020.62 1020.85 1021.07 1021.28 1021.48 1021.67 1021.86 1022.05 1022.25 1022.44 1022.62 1022.79 1022.94 1023.06 1023.15 1023.20 1023.22 1023.20 1023.15 1023.07
1017.53 1017.63 1017.73 1017.83 1017.93 1018.04 1018.14 1018.25 1018.38 1018.51 1018.67 1018.84 1019.04 1019.25 1019.47 1019.71 1019.95 1020.19 1020.42 1020.65 1020.87 1021.09 1021.30 1021.51 1021.71 1021.91 1022.10 1022.28 1022.45 1022.60 1022.73 1022.83 1022.90 1022.94 1022.94 1022.91 1022.85 1022.76
Thickness
5713 5713 5713 5715 5715 5715 5715 5713 5707 5700 5702 5709 5713 5718 5719 5718 5718 5717 5716 5714 5712 5710 5707 5705 5703 5701 5699 5697 5695 5693 5691 5689 5688 5686 5684 5682 5681 5679
5708 5707 5708 5709 5709 5709 5709 5708 5707 5702 5698 5703 5706 5709 5711 5711 5710 5711 5710 5709 5705 5703 5701 5699 5697 5695 5692 5690 5689 5687 5685 5683 5682 5680 5678 5677 5675 5673
5702 5702 5702 5703 5702 5703 5702 5701 5700 5698 5694 5696 5700 5703 5703 5703 5702 5703 5702 5700 5697 5695 5694 5692 5690 5688 5686 5684 5682 5680 5679 5677 5676 5674 5673 5671 5669 5667
5693 5694 5695 5696 5695 5695 5694 5693 5693 5693 5691 5688 5691 5693 5694 5695 5695 5695 5695 5692 5689 5687 5685 5684 5682 5681 5679 5677 5675 5674 5672 5671 5670 5668 5667 5665 5663 5661
5685 5686 5687 5687 5686 5687 5686 5686 5686 5687 5686 5684 5683 5685 5686 5687 5686 5686 5686 5684 5681 5678 5676 5675 5674 5673 5671 5670 5668 5667 5666 5665 5663 5662 5660 5658 5655 5653
5677 5678 5679 5679 5679 5679 5679 5679 5679 5679 5679 5677 5676 5677 5677 5678 5678 5676 5674 5675 5673 5671 5669 5667 5666 5664 5663 5662 5661 5660 5659 5657 5656 5654 5652 5650 5648 5645
5667 5668 5670 5672 5672 5673 5673 5673 5673 5672 5671 5670 5669 5669 5669 5669 5669 5670 5667 5666 5665 5664 5662 5660 5658 5656 5654 5654 5653 5652 5651 5650 5648 5646 5644 5642 5639 5637
5657 5659 5661 5662 5664 5665 5667 5669 5669 5667 5665 5665 5664 5663 5663 5665 5666 5665 5662 5659 5656 5657 5656 5651 5650 5648 5646 5645 5645 5645 5644 5642 5640 5639 5637 5634 5631 5629
5649 5650 5653 5655 5656 5657 5658 5661 5662 5663 5665 5664 5661 5660 5661 5662 5663 5660 5659 5657 5654 5653 5651 5644 5642 5640 5638 5637 5637 5637 5636 5635 5633 5631 5629 5627 5624 5621
5641 5643 5644 5645 5648 5650 5651 5652 5653 5655 5660 5660 5659 5659 5660 5661 5661 5660 5658 5654 5652 5650 5649 5640 5636 5633 5631 5630 5630 5630 5629 5628 5627 5625 5623 5621 5618 5615
5632 5634 5636 5637 5641 5644 5644 5644 5645 5646 5650 5652 5653 5653 5655 5657 5658 5656 5653 5649 5644 5643 5645 5639 5633 5630 5627 5624 5624 5624 5623 5622 5621 5619 5618 5616 5614 5611
5624 5625 5628 5630 5634 5637 5638 5639 5638 5639 5642 5643 5646 5648 5650 5652 5653 5653 5651 5647 5643 5640 5641 5638 5633 5630 5625 5622 5621 5620 5618 5617 5616 5615 5613 5612 5610 5607
5617 5618 5621 5625 5629 5632 5634 5635 5635 5637 5639 5640 5641 5643 5645 5646 5648 5649 5649 5648 5644 5641 5641 5639 5634 5632 5627 5622 5619 5618 5616 5614 5612 5611 5609 5608 5606 5604
5611 5613 5616 5620 5624 5627 5629 5631 5634 5635 5636 5636 5636 5637 5638 5639 5641 5643 5644 5645 5644 5642 5641 5641 5637 5633 5628 5622 5618 5615 5614 5613 5611 5608 5606 5604 5602 5600
5608 5610 5613 5616 5619 5622 5625 5628 5631 5632 5632 5631 5631 5632 5634 5635 5637 5638 5638 5639 5638 5637 5637 5638 5637 5634 5630 5624 5618 5614 5611 5610 5609 5607 5605 5602 5600 5597
5606 5608 5611 5614 5617 5620 5623 5625 5628 5629 5629 5629 5629 5630 5631 5632 5632 5633 5632 5631 5629 5629 5631 5632 5632 5630 5625 5623 5618 5614 5611 5608 5607 5606 5604 5602 5600 5596
5606 5609 5611 5613 5615 5617 5620 5623 5625 5627 5627 5628 5628 5627 5628 5628 5629 5630 5630 5629 5626 5623 5622 5624 5624 5624 5621 5619 5614 5612 5610 5607 5606 5605 5602 5600 5598 5596
5609 5609 5610 5611 5613 5615 5618 5620 5622 5624 5625 5626 5627 5626 5626 5627 5627 5629 5629 5627 5624 5622 5620 5620 5619 5618 5615 5612 5611 5610 5608 5606 5605 5604 5602 5598 5596 5594
5611 5611 5611 5612 5614 5616 5618 5619 5620 5623 5625 5626 5626 5627 5627 5627 5627 5627 5627 5626 5624 5622 5621 5620 5619 5616 5613 5611 5608 5608 5607 5605 5604 5602 5601 5599 5596 5593
5615 5614 5614 5616 5617 5617 5619 5620 5621 5623 5625 5626 5627 5627 5628 5628 5627 5626 5626 5625 5623 5621 5620 5619 5617 5616 5614 5612 5608 5606 5606 5604 5602 5599 5598 5597 5596 5594
5619 5618 5619 5619 5620 5620 5621 5622 5623 5624 5626 5626 5627 5628 5628 5628 5627 5626 5624 5624 5623 5621 5619 5616 5616 5616 5615 5613 5609 5605 5604 5604 5602 5598 5596 5593 5591 5589
5623 5623 5623 5623 5623 5623 5624 5625 5625 5626 5627 5627 5628 5628 5629 5629 5628 5626 5625 5624 5623 5622 5619 5616 5616 5615 5614 5611 5608 5606 5603 5602 5600 5598 5596 5594 5589 5586
5629 5628 5627 5627 5627 5627 5627 5628 5629 5629 5629 5629 5629 5629 5629 5628 5628 5628 5627 5625 5624 5622 5619 5616 5614 5613 5612 5611 5608 5606 5606 5602 5599 5596 5595 5596 5593 5591